Jaipur, India

5:36 AM IST on May 24, 2018 (GMT +0530)
Jaipur

Weather History for VIJP - December, 2013

Change the Weather History Date:

Monday, December 30, 2013

  Actual Average Record
Temperature  
Mean Temperature 53 °F -  
Max Temperature 62 °F - - ()
Min Temperature 44 °F - - ()
Degree Days  
Heating Degree Days 12    
Growing Degree Days 3 (Base 50)    
Moisture  
Dew Point 35 °F    
Average Humidity 49    
Maximum Humidity 82    
Minimum Humidity 26    
Precipitation  
Precipitation 0.00 in - - ()
Sea Level Pressure  
Sea Level Pressure 30.04 in    
Wind  
Wind Speed 5 mph ()    
Max Wind Speed 15 mph    
Max Gust Speed -    
Visibility 1.4 miles    
Events      
T = Trace of Precipitation, MM = Missing Value Source: Averaged Metar Reports

Daily Weather History Graph

Daily Weather History Graph

Search for Another Location

Airport or City:

Astronomy

Dec. 30, 2013 Rise Set
Actual Time 7:15 AM IST 5:43 PM IST
Civil Twilight 6:49 AM IST 6:09 PM IST
Nautical Twilight 6:20 AM IST 6:37 PM IST
Astronomical Twilight 5:52 AM IST 7:06 PM IST
Moon 4:40 AM IST (12/30) 3:45 PM IST (12/30)
Length of Visible Light 11h 19m
Length of Day
10h 28m
Waning Crescent, 7% of the Moon is Illuminated
Dec 30
Waning Crescent
Jan 1
New
Jan 8
First Quarter
Jan 16
Full
Jan 24
Last Quarter

Hourly Weather History & Observations

Time (IST) Temp. Windchill Dew Point Humidity Pressure Visibility Wind Dir Wind Speed Gust Speed Precip Events Conditions
12:00 AM 50.0 °F - 32.0 °F 50% 30.06 in 1.6 mi East 4.6 mph - N/A   Haze
1:00 AM 46.4 °F - 32.0 °F 57% 30.04 in 1.6 mi Variable 1.2 mph - N/A   Haze
2:00 AM 50.0 °F - 30.2 °F 47% 30.04 in 1.6 mi NNE 4.6 mph - N/A   Haze
2:30 AM 49 °F - 32 °F 39% 30.04 in 1 mi East 3.5 mph - -   Haze
2:30 AM 50.0 °F - 30.2 °F 47% 30.04 in 1.6 mi NNE 6.9 mph - N/A   Haze
3:00 AM 48.2 °F - 28.4 °F 46% 30.04 in 1.6 mi ENE 4.6 mph - N/A   Haze
4:00 AM 48.2 °F - 28.4 °F 46% 30.04 in 1.6 mi Calm Calm - N/A   Haze
5:00 AM 46.4 °F 45.2 °F 28.4 °F 50% 30.04 in 1.6 mi SE 3.5 mph - N/A   Haze
5:30 AM 47 °F - 28 °F 35% 30.04 in 1 mi Calm Calm - -   Haze
5:30 AM 48.2 °F - 28.4 °F 46% 30.04 in 1.6 mi Calm Calm - N/A   Haze
6:00 AM 46.4 °F - 28.4 °F 50% 30.04 in 1.6 mi Calm Calm - N/A   Haze
7:00 AM 48.2 °F - 28.4 °F 46% 30.04 in 1.6 mi Variable 2.3 mph - N/A   Haze
7:30 AM 48.2 °F - 28.4 °F 46% 30.06 in 1.6 mi East 3.5 mph - N/A   Haze
8:00 AM 50.0 °F - 28.4 °F 43% 30.06 in 1.6 mi East 4.6 mph - N/A   Haze
8:30 AM 50 °F - 32 °F 37% 30.08 in 1 mi East 8.1 mph - -   Haze
9:00 AM 53.6 °F - 28.4 °F 38% 30.09 in 1.6 mi East 3.5 mph - N/A   Haze
10:00 AM 55.4 °F - 30.2 °F 38% 30.12 in 1.6 mi East 11.5 mph - N/A   Haze
11:00 AM 57.2 °F - 32.0 °F 38% 30.09 in 1.6 mi East 12.7 mph - N/A   Haze
11:30 AM 59 °F - 34 °F 26% 30.09 in 1 mi East 13.8 mph - -   Haze
12:30 PM 60.8 °F - 32.0 °F 34% 30.06 in 1.9 mi East 12.7 mph - N/A   Haze
1:00 PM 62.6 °F - 32.0 °F 32% 30.04 in 1.9 mi East 13.8 mph - N/A   Haze
2:00 PM 60.8 °F - 33.8 °F 36% 30.04 in 1.9 mi East 11.5 mph - N/A   Haze
2:30 PM 61 °F - 37 °F 29% 29.99 in 1 mi East 9.2 mph - -   Haze
3:00 PM 60.8 °F - 37.4 °F 42% 30.01 in 1.9 mi East 15.0 mph - N/A   Haze
4:00 PM 57.2 °F - 35.6 °F 44% 30.01 in 1.9 mi East 12.7 mph - N/A   Haze
5:00 PM 55.4 °F - 41.0 °F 58% 29.98 in 1.9 mi East 13.8 mph - N/A   Haze
5:30 PM 55 °F - 42 °F 52% 30.03 in 1 mi East 6.9 mph - -   Smoke
6:00 PM 55.4 °F - 42.8 °F 63% 30.01 in 1.2 mi East 11.5 mph - N/A   Smoke
7:00 PM 55.4 °F - 44.6 °F 67% 30.01 in 1.2 mi East 12.7 mph - N/A   Smoke
8:00 PM 53.6 °F - 44.6 °F 72% 30.01 in 1.2 mi East 11.5 mph - N/A   Smoke
8:30 PM 54 °F - 47 °F 72% 30.01 in 1 mi East 10.4 mph - -   Smoke
10:00 PM 53.6 °F - 48.2 °F 82% 30.04 in 0.9 mi East 6.9 mph - N/A   Scattered Clouds
11:00 PM 53.6 °F - 48.2 °F 82% 30.04 in 0.9 mi East 6.9 mph - N/A   Scattered Clouds
11:30 PM 53 °F - 48 °F 78% 30.03 in 1 mi East 6.9 mph - -   Mist